User: anonymous   Login
Location: Caltech
(34.1382°N, 118.1253°W)
Time: 02:16:07
(UTC-07:00)
Language:

OAO 1 Rocket - Orbit

View from above orbital plane
View from above orbital plane
View from above satellite
View from above satellite

Ground track
Ground track

The orbit data is extracted from the following two-line orbital elements,

1 02144U 66031B   16126.36524403  .00000098  00000-0  34931-4 0  9991
2 02144  35.0429 299.6128 0007949 155.2429 204.8643 14.42548540629180
Epoch (UTC): 05 May 2016 08:45:57
Eccentricity: 0.0007949
inclination: 35.0429°
perigee height: 744 km
apogee height: 756 km
right ascension of ascending node: 299.6128°
argument of perigee: 155.2429°
revolutions per day: 14.42548540
mean anomaly at epoch: 204.8643°
orbit number at epoch: 62918

The dashed part of the orbit path shows where the satellite is in the earth's shadow,  

DLR